VK6JI-11 Weather Reports


time (UTC)temp
F
wind
direction
speed
knots
gust
knots
rain 1hr
in
rain 24hr
in
rain mn
in
humidity
%
barometer
mb
20260506014031 65 107 0.9 6.1 0.00 0.00 0.00 67 1028.8
20260506013831 65 65 1.7 6.1 0.00 0.00 0.00 68 1028.8
20260506013631 65 59 1.7 4.3 0.00 0.00 0.00 67 1028.9
20260506013431 65 117 1.7 3.5 0.00 0.00 0.00 68 1028.9
20260506013232 65 106 0.9 5.2 0.00 0.00 0.00 69 1028.8
20260506013031 64 106 0.9 5.2 0.00 0.00 0.00 69 1028.9
20260506012831 64 106 1.7 5.2 0.00 0.00 0.00 70 1028.9
20260506012631 64 66 1.7 5.2 0.00 0.00 0.00 70 1028.9
20260506012431 64 72 2.6 5.2 0.00 0.00 0.00 70 1028.9
20260506012231 63 86 1.7 5.2 0.00 0.00 0.00 71 1028.9
20260506012031 63 59 1.7 5.2 0.00 0.00 0.00 71 1028.8
20260506011831 63 51 1.7 5.2 0.00 0.00 0.00 72 1028.9
20260506011631 62 79 0.9 5.2 0.00 0.00 0.00 72 1028.9
20260506011431 62 79 1.7 5.2 0.00 0.00 0.00 73 1028.9
20260506011232 62 58 2.6 5.2 0.00 0.00 0.00 73 1028.9
20260506011031 61 59 1.7 4.3 0.00 0.00 0.00 74 1028.9
20260506010831 61 53 1.7 4.3 0.00 0.00 0.00 75 1028.9
20260506010631 60 53 2.6 5.2 0.00 0.00 0.00 75 1028.8
20260506010431 60 80 1.7 5.2 0.00 0.00 0.00 76 1028.9
20260506010230 60 77 1.7 5.2 0.00 0.00 0.00 76 1028.8
20260506010031 60 77 2.6 5.2 0.00 0.00 0.00 76 1028.9
20260506005830 59 66 2.6 5.2 0.00 0.00 0.00 77 1028.9
20260506005631 59 94 1.7 4.3 0.00 0.00 0.00 77 1028.9
20260506005431 59 94 1.7 4.3 0.00 0.00 0.00 77 1028.9
20260506005231 59 93 1.7 3.5 0.00 0.00 0.00 78 1028.8
20260506005031 58 92 1.7 5.2 0.00 0.00 0.00 78 1028.8
20260506004830 58 42 1.7 6.1 0.00 0.00 0.00 79 1028.8
20260506004629 58 41 1.7 6.1 0.00 0.00 0.00 79 1028.8
20260506004430 58 55 1.7 6.1 0.00 0.00 0.00 79 1028.8
20260506004228 58 61 1.7 6.1 0.00 0.00 0.00 80 1028.8
20260506004029 57 89 2.6 6.1 0.00 0.00 0.00 80 1028.8
20260506003828 57 69 1.7 3.5 0.00 0.00 0.00 81 1028.7
20260506003625 57 63 1.7 3.5 0.00 0.00 0.00 81 1028.7
20260506003424 57 69 0.9 2.6 0.00 0.00 0.00 81 1028.6
20260506003224 57 173 1.7 2.6 0.00 0.00 0.00 82 1028.6
20260506003023 56 99 0.9 2.6 0.00 0.00 0.00 82 1028.5
20260506002823 56 100 0.9 2.6 0.00 0.00 0.00 82 1028.4
20260506002623 56 76 0.9 3.5 0.00 0.00 0.00 83 1028.3
20260506002422 56 76 1.7 3.5 0.00 0.00 0.00 83 1028.3
20260506002221 56 75 0.0 3.5 0.00 0.00 0.00 83 1028.2
20260506002021 55 77 0.9 3.5 0.00 0.00 0.00 83 1028.2
20260506001820 55 41 1.7 3.5 0.00 0.00 0.00 83 1028.2
20260506001620 55 89 0.9 2.6 0.00 0.00 0.00 83 1028.1
20260506001421 55 48 0.9 2.6 0.00 0.00 0.00 83 1028.1
20260506001220 55 48 0.9 2.6 0.00 0.00 0.00 83 1028.1
20260506001019 55 48 0.9 2.6 0.00 0.00 0.00 83 1028.1
20260506000819 55 48 0.9 2.6 0.00 0.00 0.00 83 1028.1
20260506000618 55 45 0.9 2.6 0.00 0.00 0.00 84 1028.1
20260506000418 54 38 0.9 2.6 0.00 0.00 0.00 84 1028.1
20260506000219 54 80 0.9 2.6 0.00 0.00 0.00 84 1028.1
20260506000017 54 51 0.9 2.6 0.00 0.00 0.00 84 1028.1
20260505235804 54 120 0.0 1.7 0.00 0.00 0.00 84 1028.2
20260505235604 54 151 0.9 1.7 0.00 0.00 0.00 84 1028.2
20260505235404 54 151 0.0 0.9 0.00 0.00 0.00 84 1028.2
20260505235204 54 151 0.0 0.9 0.00 0.00 0.00 84 1028.1
20260505235004 54 151 0.0 2.6 0.00 0.00 0.00 84 1028.1
20260505234804 54 151 0.0 2.6 0.00 0.00 0.00 84 1028.1
20260505234605 54 151 0.0 2.6 0.00 0.00 0.00 84 1028.1
20260505234404 54 151 0.0 2.6 0.00 0.00 0.00 84 1028.0
20260505234205 54 183 0.9 2.6 0.00 0.00 0.00 84 1028.0
20260505234004 54 49 0.0 1.7 0.00 0.00 0.00 84 1028.0
20260505233805 54 49 0.9 1.7 0.00 0.00 0.00 84 1028.0
20260505233603 54 45 0.0 1.7 0.00 0.00 0.00 84 1027.9
20260505233404 54 45 0.0 1.7 0.00 0.00 0.00 84 1027.9
20260505233205 54 45 0.0 1.7 0.00 0.00 0.00 83 1027.9
20260505233004 54 45 0.0 0.9 0.00 0.00 0.00 83 1027.8
20260505232804 54 45 0.0 0.9 0.00 0.00 0.00 83 1027.8
20260505232604 54 45 0.0 0.9 0.00 0.00 0.00 83 1027.7
20260505232404 54 45 0.0 1.7 0.00 0.00 0.00 83 1027.7
20260505232204 54 45 0.0 1.7 0.00 0.00 0.00 83 1027.6
20260505232005 54 45 0.0 1.7 0.00 0.00 0.00 83 1027.6
20260505231804 54 45 0.0 1.7 0.00 0.00 0.00 83 1027.6
20260505231602 54 45 0.0 1.7 0.00 0.00 0.00 83 1027.5
20260505231401 54 45 0.0 0.9 0.00 0.00 0.00 83 1027.4
20260505231201 54 45 0.0 0.9 0.00 0.00 0.00 83 1027.5
20260505231000 54 45 0.0 0.9 0.00 0.00 0.00 83 1027.4
20260505230800 54 45 0.0 0.9 0.00 0.00 0.00 83 1027.5
20260505230559 54 45 0.0 1.7 0.00 0.00 0.00 83 1027.5
20260505230359 54 45 0.0 1.7 0.00 0.00 0.00 83 1027.3
20260505230158 54 45 0.0 1.7 0.00 0.00 0.00 82 1027.3
20260505225958 54 45 0.0 1.7 0.00 0.00 0.00 82 1027.3
20260505225757 54 45 0.0 1.7 0.00 0.00 0.00 82 1027.3
20260505225557 54 45 0.0 2.6 0.00 0.00 0.00 82 1027.2
20260505225356 54 44 0.0 2.6 0.00 0.00 0.00 82 1027.2
20260505225156 54 44 0.0 2.6 0.00 0.00 0.00 82 1027.1
20260505224955 54 44 0.0 2.6 0.00 0.00 0.00 82 1027.2
20260505224755 54 44 0.9 2.6 0.00 0.00 0.00 82 1027.1
20260505224555 54 45 0.0 2.6 0.00 0.00 0.00 82 1027.0
20260505224355 54 44 0.0 3.5 0.00 0.00 0.00 82 1027.1
20260505224153 54 44 0.0 3.5 0.00 0.00 0.00 82 1027.1
20260505223951 54 49 0.0 3.5 0.00 0.00 0.00 82 1027.1
20260505223750 54 49 0.9 3.5 0.00 0.00 0.00 82 1027.2
20260505223550 54 103 0.0 1.7 0.00 0.00 0.00 81 1027.1
20260505223350 54 103 0.0 1.7 0.00 0.00 0.00 81 1027.1
20260505223149 54 103 0.0 0.9 0.00 0.00 0.00 81 1027.1
20260505222948 54 103 0.0 1.7 0.00 0.00 0.00 81 1027.1
20260505222749 55 103 0.0 1.7 0.00 0.00 0.00 81 1027.0
20260505222548 55 103 0.0 2.6 0.00 0.00 0.00 81 1027.0
20260505222347 55 103 0.0 2.6 0.00 0.00 0.00 81 1027.0
20260505222147 55 103 0.0 2.6 0.00 0.00 0.00 81 1026.9
20260505221947 55 103 0.9 2.6 0.00 0.00 0.00 81 1027.0
20260505221746 55 104 0.0 2.6 0.00 0.00 0.00 81 1026.9
20260505221546 55 104 0.0 2.6 0.00 0.00 0.00 81 1026.9
20260505221345 55 104 0.0 2.6 0.00 0.00 0.00 81 1027.0
20260505221145 55 104 0.9 2.6 0.00 0.00 0.00 81 1026.8
20260505220944 55 104 0.9 1.7 0.00 0.00 0.00 81 1026.9
20260505220743 55 104 0.9 2.6 0.00 0.00 0.00 81 1026.8
20260505220543 55 104 0.0 2.6 0.00 0.00 0.00 81 1026.9
20260505220342 55 104 0.9 2.6 0.00 0.00 0.00 81 1026.9
20260505220141 55 104 0.0 2.6 0.00 0.00 0.00 81 1026.8
20260505215936 55 104 0.9 2.6 0.00 0.00 0.00 81 1026.9
20260505215736 55 106 0.9 1.7 0.00 0.00 0.00 80 1026.8
20260505215536 55 107 0.0 1.7 0.00 0.00 0.00 80 1026.8
20260505215336 55 106 0.0 2.6 0.00 0.00 0.00 80 1026.8
20260505215136 55 106 0.0 2.6 0.00 0.00 0.00 80 1026.8
20260505214936 55 106 0.9 2.6 0.00 0.00 0.00 80 1026.7
20260505214736 55 106 0.9 2.6 0.00 0.00 0.00 80 1026.8
20260505214535 55 106 1.7 2.6 0.00 0.00 0.00 80 1026.8
20260505214335 55 107 0.9 2.6 0.00 0.00 0.00 80 1026.8
20260505214136 55 107 0.9 2.6 0.00 0.00 0.00 80 1026.8
20260505213935 55 107 0.0 3.5 0.00 0.00 0.00 80 1026.8
20260505213735 55 107 1.7 3.5 0.00 0.00 0.00 80 1026.7
20260505213536 55 107 0.9 3.5 0.00 0.00 0.00 80 1026.7
20260505213337 55 62 1.7 3.5 0.00 0.00 0.00 80 1026.6
20260505213135 55 61 1.7 3.5 0.00 0.00 0.00 80 1026.6
20260505212936 55 87 0.9 3.5 0.00 0.00 0.00 80 1026.6
20260505212735 55 87 0.9 3.5 0.00 0.00 0.00 80 1026.5
20260505212534 55 66 1.7 3.5 0.00 0.00 0.00 80 1026.5
20260505212335 55 103 0.9 3.5 0.00 0.00 0.00 80 1026.5
20260505212135 55 103 0.9 3.5 0.00 0.00 0.00 80 1026.5
20260505211936 55 103 0.9 2.6 0.00 0.00 0.00 80 1026.5
20260505211734 55 103 0.9 2.6 0.00 0.00 0.00 80 1026.5
20260505211534 55 103 0.9 2.6 0.00 0.00 0.00 80 1026.5
20260505211334 56 103 1.7 2.6 0.00 0.00 0.00 80 1026.5
20260505211135 56 103 1.7 2.6 0.00 0.00 0.00 80 1026.6
20260505210934 56 103 0.9 2.6 0.00 0.00 0.00 80 1026.5
20260505210734 56 103 0.9 2.6 0.00 0.00 0.00 80 1026.5
20260505210538 56 104 0.9 2.6 0.00 0.00 0.00 80 1026.5
20260505210334 56 113 0.9 5.2 0.00 0.00 0.00 79 1026.5
20260505210137 56 25 0.9 5.2 0.00 0.00 0.00 79 1026.4
20260505205934 56 25 0.9 5.2 0.00 0.00 0.00 79 1026.4
20260505205734 56 25 0.9 5.2 0.00 0.00 0.00 79 1026.4
20260505205534 56 25 1.7 5.2 0.00 0.00 0.00 80 1026.4
20260505205333 56 106 0.9 2.6 0.00 0.00 0.00 79 1026.5
20260505205133 56 106 1.7 2.6 0.00 0.00 0.00 80 1026.4
20260505204929 56 106 0.9 3.5 0.00 0.00 0.00 80 1026.4
20260505204706 56 107 0.0 3.5 0.00 0.00 0.00 80 1026.4
20260505204505 56 107 0.9 3.5 0.00 0.00 0.00 79 1026.4
20260505204305 56 107 1.7 3.5 0.00 0.00 0.00 79 1026.3
20260505204106 56 107 0.9 2.6 0.00 0.00 0.00 79 1026.3
20260505203904 56 96 0.9 3.5 0.00 0.00 0.00 79 1026.4
20260505203705 56 96 0.0 3.5 0.00 0.00 0.00 79 1026.3
20260505203507 56 96 0.9 3.5 0.00 0.00 0.00 79 1026.3
20260505203306 56 96 0.9 4.3 0.00 0.00 0.00 79 1026.3
20260505203105 56 96 1.7 4.3 0.00 0.00 0.00 79 1026.3
20260505202905 56 79 0.9 4.3 0.00 0.00 0.00 79 1026.2
20260505202705 56 77 0.9 4.3 0.00 0.00 0.00 79 1026.3
20260505202505 56 77 0.9 4.3 0.00 0.00 0.00 79 1026.2
20260505202306 56 124 0.9 2.6 0.00 0.00 0.00 79 1026.2
20260505202104 56 124 0.9 2.6 0.00 0.00 0.00 79 1026.2
20260505201904 56 124 0.9 2.6 0.00 0.00 0.00 79 1026.1
20260505201702 56 125 0.9 2.6 0.00 0.00 0.00 79 1026.2
20260505201455 56 125 0.9 2.6 0.00 0.00 0.00 79 1026.2
20260505201255 56 125 0.0 2.6 0.00 0.00 0.00 79 1026.2
20260505201055 56 125 0.9 2.6 0.00 0.00 0.00 79 1026.1
20260505200854 56 125 0.9 2.6 0.00 0.00 0.00 79 1026.1
20260505200655 56 134 0.0 2.6 0.00 0.00 0.00 79 1026.1
20260505200454 56 134 0.9 2.6 0.00 0.00 0.00 79 1026.1
20260505200254 56 134 0.9 2.6 0.00 0.00 0.00 79 1026.0
20260505200053 56 135 0.0 2.6 0.00 0.00 0.00 79 1026.1
20260505195852 56 135 0.0 2.6 0.00 0.00 0.00 79 1026.2
20260505195651 56 135 0.9 2.6 0.00 0.00 0.00 79 1026.1
20260505195451 56 137 0.0 2.6 0.00 0.00 0.00 79 1026.1
20260505195251 56 137 0.0 2.6 0.00 0.00 0.00 79 1026.1
20260505195051 56 137 0.0 2.6 0.00 0.00 0.00 79 1026.1
20260505194850 56 137 0.0 2.6 0.00 0.00 0.00 78 1026.1
20260505194649 56 137 0.9 1.7 0.00 0.00 0.00 78 1026.1
20260505194449 56 138 0.0 1.7 0.00 0.00 0.00 78 1026.2
20260505194248 56 138 0.0 1.7 0.00 0.00 0.00 78 1026.1
20260505194049 56 138 0.0 1.7 0.00 0.00 0.00 78 1026.1
20260505193844 56 138 0.0 1.7 0.00 0.00 0.00 78 1026.2
20260505193645 56 138 0.0 1.7 0.00 0.00 0.00 78 1026.2
20260505193444 56 138 0.0 1.7 0.00 0.00 0.00 78 1026.1
20260505193243 56 138 0.0 1.7 0.00 0.00 0.00 78 1026.2
20260505193044 56 138 0.0 1.7 0.00 0.00 0.00 78 1026.2
20260505192843 56 138 0.0 1.7 0.00 0.00 0.00 78 1026.2
20260505192642 56 138 0.9 1.7 0.00 0.00 0.00 78 1026.2
20260505192442 56 138 0.9 1.7 0.00 0.00 0.00 78 1026.1
20260505192241 56 166 0.0 1.7 0.00 0.00 0.00 78 1026.2
20260505192041 56 166 0.0 1.7 0.00 0.00 0.00 77 1026.2
20260505191841 56 166 0.0 1.7 0.00 0.00 0.00 77 1026.2
20260505191641 56 168 0.0 1.7 0.00 0.00 0.00 77 1026.2
20260505191440 56 168 0.9 1.7 0.00 0.00 0.00 77 1026.2
20260505191239 56 134 0.0 1.7 0.00 0.00 0.00 77 1026.1
20260505191039 56 134 0.0 1.7 0.00 0.00 0.00 76 1026.1
20260505190839 56 134 0.0 2.6 0.00 0.00 0.00 76 1026.1
20260505190638 56 134 0.0 2.6 0.00 0.00 0.00 76 1026.1
20260505190437 56 134 0.0 2.6 0.00 0.00 0.00 76 1026.1
20260505190237 57 134 0.0 2.6 0.00 0.00 0.00 76 1026.0
20260505190037 57 134 0.0 2.6 0.00 0.00 0.00 76 1026.0
20260505185805 57 134 0.0 1.7 0.00 0.00 0.00 76 1026.0
20260505185605 57 134 0.0 1.7 0.00 0.00 0.00 76 1026.0
20260505185405 57 134 0.0 1.7 0.00 0.00 0.00 76 1026.0
20260505185205 57 134 0.0 1.7 0.00 0.00 0.00 75 1026.0
20260505185006 57 134 0.0 1.7 0.00 0.00 0.00 76 1026.0
20260505184804 57 134 0.0 1.7 0.00 0.00 0.00 75 1026.0
20260505184605 57 134 0.0 1.7 0.00 0.00 0.00 75 1026.0
20260505184405 57 134 0.0 1.7 0.00 0.00 0.00 75 1026.1
20260505184205 57 134 0.0 1.7 0.00 0.00 0.00 75 1026.1
20260505184006 57 134 0.9 1.7 0.00 0.00 0.00 75 1026.1
20260505183807 57 134 0.9 2.6 0.00 0.00 0.00 75 1026.1
20260505183605 57 137 0.9 2.6 0.00 0.00 0.00 75 1026.1
20260505183405 57 135 0.9 2.6 0.00 0.00 0.00 74 1026.1
20260505183204 57 135 0.0 2.6 0.00 0.00 0.00 74 1026.2
20260505183005 57 135 0.9 2.6 0.00 0.00 0.00 74 1026.2
20260505182805 57 135 0.0 1.7 0.00 0.00 0.00 74 1026.2
20260505182604 58 135 0.0 1.7 0.00 0.00 0.00 74 1026.2
20260505182405 58 135 0.0 1.7 0.00 0.00 0.00 74 1026.3
20260505182142 58 135 0.0 1.7 0.00 0.00 0.00 74 1026.3
20260505181941 58 135 0.0 1.7 0.00 0.00 0.00 74 1026.2
20260505181740 58 135 0.0 1.7 0.00 0.00 0.00 74 1026.2
20260505181541 58 135 0.0 1.7 0.00 0.00 0.00 74 1026.2
20260505181339 58 135 0.9 3.5 0.00 0.00 0.00 74 1026.1
20260505181140 58 135 0.9 3.5 0.00 0.00 0.00 74 1026.2
20260505180935 58 84 0.9 3.5 0.00 0.00 0.00 74 1026.2
20260505180736 58 86 0.9 3.5 0.00 0.00 0.00 74 1026.1
20260505180535 58 76 0.9 3.5 0.00 0.00 0.00 74 1026.2
20260505180335 58 75 1.7 2.6 0.00 0.00 0.00 74 1026.1
20260505180133 58 44 0.9 1.7 0.00 0.00 0.00 74 1026.1
20260505175935 58 32 0.0 7.8 0.00 0.00 0.00 74 1026.2
20260505175734 58 32 0.9 7.8 0.00 0.00 0.00 74 1026.1
20260505175533 58 32 0.0 7.8 0.00 0.00 0.00 74 1026.1
20260505175330 58 32 0.9 7.8 0.00 0.00 0.00 74 1026.1
20260505175129 58 32 1.7 7.8 0.00 0.00 0.00 74 1026.1
20260505174929 58 130 0.9 2.6 0.00 0.00 0.00 74 1026.1
20260505174729 58 130 1.7 2.6 0.00 0.00 0.00 74 1026.0
20260505174529 58 73 1.7 2.6 0.00 0.00 0.00 75 1026.0
20260505174329 58 70 0.9 2.6 0.00 0.00 0.00 75 1026.0
20260505174129 58 70 1.7 2.6 0.00 0.00 0.00 75 1026.0
20260505173929 58 70 0.9 2.6 0.00 0.00 0.00 75 1026.0
20260505173729 57 70 0.9 2.6 0.00 0.00 0.00 75 1025.9
20260505173529 57 70 0.9 2.6 0.00 0.00 0.00 76 1025.9
20260505173329 57 65 0.9 4.3 0.00 0.00 0.00 76 1026.0
20260505173129 57 65 1.7 4.3 0.00 0.00 0.00 76 1026.0
20260505172928 57 63 1.7 4.3 0.00 0.00 0.00 77 1026.0
20260505172729 57 114 1.7 4.3 0.00 0.00 0.00 77 1026.0
20260505172527 57 120 1.7 4.3 0.00 0.00 0.00 77 1025.9
20260505172328 56 87 0.9 3.5 0.00 0.00 0.00 78 1025.9
20260505172127 56 86 0.9 3.5 0.00 0.00 0.00 78 1025.9
20260505171927 56 87 1.7 3.5 0.00 0.00 0.00 78 1025.9
20260505171727 56 72 0.9 3.5 0.00 0.00 0.00 78 1025.9
20260505171527 56 63 0.0 2.6 0.00 0.00 0.00 78 1025.9
20260505171328 56 62 0.0 2.6 0.00 0.00 0.00 78 1025.9
20260505171129 56 62 0.9 2.6 0.00 0.00 0.00 78 1025.9
20260505170928 56 61 0.9 2.6 0.00 0.00 0.00 78 1025.8
20260505170728 56 100 0.0 1.7 0.00 0.00 0.00 79 1025.9
20260505170528 56 135 0.0 0.0 0.00 0.00 0.00 79 1025.9
20260505170328 55 135 0.0 0.0 0.00 0.00 0.00 79 1025.9
20260505170129 55 137 0.0 0.0 0.00 0.00 0.00 79 1025.9
20260505165928 55 137 0.0 0.0 0.00 0.00 0.00 79 1025.9
20260505165730 55 137 0.0 0.0 0.00 0.00 0.00 79 1025.8
20260505165528 55 137 0.0 0.0 0.00 0.00 0.00 79 1025.9
20260505165328 55 137 0.0 0.0 0.00 0.00 0.00 79 1025.9
20260505165128 55 137 0.0 0.0 0.00 0.00 0.00 78 1025.9
20260505164927 55 137 0.0 0.0 0.00 0.00 0.00 78 1025.8
20260505164727 55 137 0.0 0.0 0.00 0.00 0.00 78 1025.9
20260505164529 55 137 0.0 0.0 0.00 0.00 0.00 78 1025.9
20260505164329 55 137 0.0 0.0 0.00 0.00 0.00 78 1025.9
20260505164128 55 137 0.0 0.0 0.00 0.00 0.00 78 1025.8
20260505163928 55 137 0.0 0.0 0.00 0.00 0.00 79 1025.9
20260505163727 55 137 0.0 0.0 0.00 0.00 0.00 78 1025.8
20260505163527 55 137 0.0 0.0 0.00 0.00 0.00 78 1025.8
20260505163327 55 137 0.0 0.0 0.00 0.00 0.00 78 1025.8
20260505163128 55 137 0.0 0.0 0.00 0.00 0.00 79 1025.8
20260505162929 55 137 0.0 0.0 0.00 0.00 0.00 79 1025.8
20260505162727 55 137 0.0 0.0 0.00 0.00 0.00 79 1025.8
20260505162526 55 137 0.0 0.0 0.00 0.00 0.00 79 1025.8
20260505162327 55 137 0.0 0.0 0.00 0.00 0.00 79 1025.8
20260505162127 55 137 0.0 0.0 0.00 0.00 0.00 79 1025.7
20260505161927 55 137 0.0 0.0 0.00 0.00 0.00 79 1025.7
20260505161727 55 137 0.0 0.0 0.00 0.00 0.00 79 1025.6
20260505161528 55 137 0.0 0.0 0.00 0.00 0.00 80 1025.6
20260505161327 55 137 0.0 0.0 0.00 0.00 0.00 80 1025.6
20260505161128 0 0.0 0.0 0.00 0.00 0.00 1025.6
20260505160928 0 0.0 0.0 0.00 0.00 0.00 1025.6
20260505160725 0 0.0 0.0 0.00 0.00 0.00 1025.5
20260505160527 0 0.0 0.0 0.00 0.00 0.00 1025.6
20260505153304 54 207 0.0 0.9 0.00 0.00 0.00 84 1025.7
20260505153143 54 207 0.0 0.9 0.00 0.00 0.00 84 1025.7
20260505152904 54 207 0.0 0.9 0.00 0.00 0.00 85 1025.7
20260505152700 54 207 0.0 0.9 0.00 0.00 0.00 84 1025.7
20260505152500 54 207 0.0 0.9 0.00 0.00 0.00 85 1025.6
20260505152259 54 207 0.0 0.9 0.00 0.00 0.00 85 1025.6
20260505152100 54 207 0.0 0.0 0.00 0.00 0.00 84 1025.7
20260505151900 54 207 0.0 0.0 0.00 0.00 0.00 84 1025.6
20260505151658 54 207 0.0 0.0 0.00 0.00 0.00 84 1025.6
20260505151458 54 207 0.0 0.0 0.00 0.00 0.00 84 1025.7
20260505151257 54 207 0.0 0.0 0.00 0.00 0.00 84 1025.6
20260505151057 54 207 0.0 0.0 0.00 0.00 0.00 83 1025.6
20260505150856 54 207 0.0 0.0 0.00 0.00 0.00 83 1025.6
20260505150656 54 207 0.0 0.0 0.00 0.00 0.00 83 1025.6
20260505150455 54 207 0.0 0.0 0.00 0.00 0.00 83 1025.6
20260505150255 54 207 0.0 0.0 0.00 0.00 0.00 83 1025.6
20260505140650 56 207 0.0 0.0 0.00 0.00 0.00 80 1025.7
20260505140450 57 207 0.0 0.0 0.00 0.00 0.00 80 1025.7
20260505140250 57 207 0.0 0.0 0.00 0.00 0.00 80 1025.8
20260505130244 58 207 0.0 0.0 0.00 0.00 0.00 79 1025.6
20260505125041 59 207 0.0 0.0 0.00 0.00 0.00 79 1025.6
20260505124840 59 207 0.0 0.0 0.00 0.00 0.00 78 1025.7
20260505124641 59 207 0.0 0.0 0.00 0.00 0.00 78 1025.6
20260505124440 59 207 0.0 0.0 0.00 0.00 0.00 78 1025.6
20260505124236 59 207 0.0 0.0 0.00 0.00 0.00 78 1025.6
20260505124035 59 207 0.0 0.0 0.00 0.00 0.00 78 1025.6
20260505123835 59 207 0.0 0.0 0.00 0.00 0.00 78 1025.6
20260505123635 59 207 0.0 0.0 0.00 0.00 0.00 78 1025.6
20260505123434 60 207 0.0 0.0 0.00 0.00 0.00 78 1025.5
20260505123234 60 207 0.0 0.0 0.00 0.00 0.00 78 1025.5
20260505123034 60 207 0.0 0.0 0.00 0.00 0.00 78 1025.6
20260505122833 60 207 0.0 0.0 0.00 0.00 0.00 78 1025.6
20260505122633 60 207 0.0 0.0 0.00 0.00 0.00 78 1025.6
20260505122432 60 207 0.0 0.0 0.00 0.00 0.00 78 1025.6
20260505122232 60 207 0.0 0.0 0.00 0.00 0.00 77 1025.5
20260505122031 60 207 0.0 0.0 0.00 0.00 0.00 77 1025.5
20260505121832 60 207 0.0 0.0 0.00 0.00 0.00 77 1025.5
20260505121631 60 207 0.0 0.0 0.00 0.00 0.00 77 1025.5
20260505121432 61 207 0.0 0.0 0.00 0.00 0.00 77 1025.5
20260505121230 61 207 0.0 0.0 0.00 0.00 0.00 77 1025.5
20260505121031 61 207 0.0 0.0 0.00 0.00 0.00 77 1025.4
20260505120831 61 207 0.0 0.0 0.00 0.00 0.00 77 1025.5
20260505120631 61 207 0.0 0.0 0.00 0.00 0.00 77 1025.4
20260505120431 61 207 0.0 0.0 0.00 0.00 0.00 77 1025.4
20260505120227 61 207 0.0 0.0 0.00 0.00 0.00 77 1025.4
20260505120028 61 207 0.0 0.0 0.00 0.00 0.00 77 1025.5
20260505115827 61 207 0.0 0.0 0.00 0.00 0.00 77 1025.4
20260505115626 61 207 0.0 0.0 0.00 0.00 0.00 77 1025.4
20260505115426 61 207 0.0 0.0 0.00 0.00 0.00 77 1025.4
20260505115225 62 207 0.0 0.0 0.00 0.00 0.00 77 1025.4
20260505115026 62 207 0.0 0.0 0.00 0.00 0.00 77 1025.4
20260505114825 62 207 0.0 0.0 0.00 0.00 0.00 77 1025.5
20260505114624 62 207 0.0 0.0 0.00 0.00 0.00 76 1025.4
20260505114423 62 207 0.0 0.0 0.00 0.00 0.00 77 1025.5
20260505114224 62 207 0.0 0.0 0.00 0.00 0.00 76 1025.4
20260505114024 62 207 0.0 0.0 0.00 0.00 0.00 76 1025.5
20260505113823 62 207 0.0 0.0 0.00 0.00 0.00 76 1025.4
20260505113622 62 207 0.0 0.9 0.00 0.00 0.00 76 1025.4
20260505113421 62 207 0.0 0.9 0.00 0.00 0.00 76 1025.4
20260505113221 62 207 0.0 0.9 0.00 0.00 0.00 75 1025.3
20260505113021 62 207 0.0 0.9 0.00 0.00 0.00 75 1025.4
20260505112820 62 207 0.0 0.9 0.00 0.00 0.00 75 1025.4
20260505112620 62 207 0.0 0.9 0.00 0.00 0.00 75 1025.4
20260505112417 63 207 0.0 0.9 0.00 0.00 0.00 75 1025.4
20260505112217 63 207 0.0 0.9 0.00 0.00 0.00 75 1025.3
20260505112015 63 207 0.0 0.9 0.00 0.00 0.00 75 1025.4
20260505111815 63 207 0.0 0.9 0.00 0.00 0.00 74 1025.4
20260505111615 63 207 0.0 0.9 0.00 0.00 0.00 74 1025.3
20260505111415 63 207 0.0 0.0 0.00 0.00 0.00 75 1025.3
20260505111214 63 207 0.0 0.0 0.00 0.00 0.00 75 1025.4
20260505111013 63 207 0.0 0.0 0.00 0.00 0.00 75 1025.3
20260505110813 63 207 0.0 0.0 0.00 0.00 0.00 74 1025.3
20260505110613 63 207 0.0 0.0 0.00 0.00 0.00 74 1025.3
20260505110412 63 207 0.0 0.0 0.00 0.00 0.00 74 1025.3
20260505110211 63 207 0.0 0.9 0.00 0.00 0.00 74 1025.3
20260505102202 65 207 0.0 0.9 0.00 0.00 0.00 71 1024.7
20260505102004 65 207 0.0 0.9 0.00 0.00 0.00 71 1024.7
20260505101802 65 207 0.0 1.7 0.00 0.00 0.00 71 1024.7
20260505101602 65 207 0.0 3.5 0.00 0.00 0.00 71 1024.7
20260505101402 65 207 0.0 3.5 0.00 0.00 0.00 71 1024.7
20260505101202 65 207 0.0 3.5 0.00 0.00 0.00 71 1024.7
20260505101001 65 207 0.0 3.5 0.00 0.00 0.00 70 1024.7
20260505100802 66 207 0.9 3.5 0.00 0.00 0.00 70 1024.6
20260505100602 66 207 0.9 3.5 0.00 0.00 0.00 70 1024.6
20260505100402 66 207 0.0 3.5 0.00 0.00 0.00 70 1024.6
20260505100202 66 207 0.0 3.5 0.00 0.00 0.00 70 1024.6
20260505100003 66 207 0.9 3.5 0.00 0.00 0.00 69 1024.6
20260505095802 66 207 1.7 3.5 0.00 0.00 0.00 69 1024.6
20260505095602 66 206 2.6 6.1 0.00 0.00 0.00 68 1024.6
20260505095402 66 193 0.9 6.1 0.00 0.00 0.00 68 1024.5
20260505095203 66 193 0.0 6.1 0.00 0.00 0.00 68 1024.6
20260505095003 66 193 0.0 6.1 0.00 0.00 0.00 67 1024.5
20260505094805 67 193 0.9 6.1 0.00 0.00 0.00 67 1024.5
20260505094602 67 221 0.9 5.2 0.00 0.00 0.00 67 1024.5
20260505094402 67 218 1.7 5.2 0.00 0.00 0.00 67 1024.5
20260505094202 67 217 2.6 5.2 0.00 0.00 0.00 68 1024.5
20260505094003 67 217 1.7 6.1 0.00 0.00 0.00 67 1024.5
20260505093803 67 213 2.6 6.1 0.00 0.00 0.00 67 1024.4
20260505093602 67 213 1.7 6.1 0.00 0.00 0.00 67 1024.4
20260505093402 67 213 3.5 6.1 0.00 0.00 0.00 67 1024.4
20260505093202 67 213 2.6 6.1 0.00 0.00 0.00 67 1024.4
20260505093003 67 228 2.6 6.1 0.00 0.00 0.00 66 1024.4
20260505092803 67 189 2.6 6.1 0.00 0.00 0.00 66 1024.4
20260505092602 68 207 1.7 6.1 0.00 0.00 0.00 66 1024.4
20260505092403 68 179 1.7 6.1 0.00 0.00 0.00 66 1024.4
20260505092202 68 211 1.7 6.1 0.00 0.00 0.00 67 1024.4
20260505092002 68 211 3.5 6.1 0.00 0.00 0.00 67 1024.3
20260505091802 68 218 2.6 5.2 0.00 0.00 0.00 67 1024.3
20260505091602 68 216 2.6 7.8 0.00 0.00 0.00 67 1024.3
20260505091400 68 213 2.6 7.8 0.00 0.00 0.00 66 1024.3
20260505091159 68 209 2.6 7.8 0.00 0.00 0.00 66 1024.3
20260505090958 68 221 1.7 7.8 0.00 0.00 0.00 66 1024.2
20260505090758 68 220 4.3 8.7 0.00 0.00 0.00 65 1024.3
20260505090558 69 209 2.6 8.7 0.00 0.00 0.00 65 1024.3
20260505090358 69 209 3.5 8.7 0.00 0.00 0.00 65 1024.2
20260505090157 69 210 4.3 8.7 0.00 0.00 0.00 65 1024.2
20260505085957 69 230 5.2 8.7 0.00 0.00 0.00 65 1024.1
20260505085756 69 223 2.6 8.7 0.00 0.00 0.00 64 1024.2
20260505085556 69 207 1.7 9.6 0.00 0.00 0.00 64 1024.2
20260505085355 69 211 2.6 9.6 0.00 0.00 0.00 64 1024.2
20260505085154 69 214 3.5 9.6 0.00 0.00 0.00 64 1024.2
20260505084954 69 197 2.6 9.6 0.00 0.00 0.00 64 1024.1
20260505084754 69 206 3.5 9.6 0.00 0.00 0.00 64 1024.1
20260505084554 69 213 3.5 9.6 0.00 0.00 0.00 63 1024.2
20260505084353 69 211 4.3 9.6 0.00 0.00 0.00 63 1024.2
20260505084152 69 207 3.5 9.6 0.00 0.00 0.00 63 1024.1
20260505083953 70 152 4.3 9.6 0.00 0.00 0.00 64 1024.1
20260505083751 70 216 4.3 7.8 0.00 0.00 0.00 63 1024.1
20260505083545 70 209 4.3 7.8 0.00 0.00 0.00 63 1024.0
20260505083346 70 209 4.3 9.6 0.00 0.00 0.00 63 1024.1
20260505083139 70 163 4.3 9.6 0.00 0.00 0.00 63 1024.0
20260505082941 70 207 3.5 9.6 0.00 0.00 0.00 63 1024.0
20260505082738 70 220 5.2 9.6 0.00 0.00 0.00 62 1024.1
20260505082535 70 210 5.2 9.6 0.00 0.00 0.00 62 1024.1
20260505082334 70 225 4.3 10.4 0.00 0.00 0.00 62 1024.1
20260505082134 70 220 1.7 10.4 0.00 0.00 0.00 62 1024.0
20260505081933 71 217 5.2 10.4 0.00 0.00 0.00 61 1024.1
20260505081734 71 213 5.2 10.4 0.00 0.00 0.00 61 1024.1
20260505081531 71 238 6.1 11.3 0.00 0.00 0.00 61 1024.1
20260505081331 71 163 3.5 11.3 0.00 0.00 0.00 61 1024.1
20260505081131 71 206 2.6 11.3 0.00 0.00 0.00 61 1024.1
20260505080933 71 210 5.2 11.3 0.00 0.00 0.00 60 1024.0
20260505080732 71 224 5.2 11.3 0.00 0.00 0.00 58 1024.0
20260505080530 71 220 5.2 10.4 0.00 0.00 0.00 58 1024.0
20260505080331 71 237 5.2 10.4 0.00 0.00 0.00 58 1024.0
20260505080131 71 207 6.1 10.4 0.00 0.00 0.00 58 1024.0
20260505075931 71 223 6.1 10.4 0.00 0.00 0.00 59 1023.9
20260505075732 72 209 5.2 9.6 0.00 0.00 0.00 58 1023.9
20260505075532 72 217 6.1 9.6 0.00 0.00 0.00 58 1024.0
20260505075331 72 228 4.3 9.6 0.00 0.00 0.00 60 1024.0
20260505075131 72 213 5.2 9.6 0.00 0.00 0.00 60 1023.9
20260505074931 72 224 5.2 9.6 0.00 0.00 0.00 60 1023.9
20260505074731 72 231 5.2 9.6 0.00 0.00 0.00 60 1023.9
20260505074531 72 252 2.6 9.6 0.00 0.00 0.00 60 1023.9
20260505074331 72 207 3.5 9.6 0.00 0.00 0.00 60 1023.8
20260505074131 72 210 2.6 9.6 0.00 0.00 0.00 60 1023.9
20260505073931 72 218 4.3 9.6 0.00 0.00 0.00 59 1023.9
20260505073731 72 230 3.5 8.7 0.00 0.00 0.00 59 1023.9
20260505073531 72 224 4.3 8.7 0.00 0.00 0.00 58 1023.9
20260505073331 72 214 4.3 8.7 0.00 0.00 0.00 58 1023.9
20260505073130 72 211 5.2 8.7 0.00 0.00 0.00 58 1023.8
20260505072931 73 216 5.2 8.7 0.00 0.00 0.00 58 1023.9
20260505072731 73 216 5.2 8.7 0.00 0.00 0.00 57 1023.9
20260505072531 73 218 5.2 8.7 0.00 0.00 0.00 56 1023.9
20260505072330 73 220 5.2 8.7 0.00 0.00 0.00 56 1023.8
20260505072126 73 213 4.3 8.7 0.00 0.00 0.00 57 1023.8
20260505071927 73 228 4.3 8.7 0.00 0.00 0.00 58 1023.8
20260505071726 73 225 4.3 8.7 0.00 0.00 0.00 58 1023.8
20260505071525 73 231 5.2 10.4 0.00 0.00 0.00 58 1023.8
20260505071325 73 216 5.2 10.4 0.00 0.00 0.00 57 1023.8
20260505071124 73 234 3.5 10.4 0.00 0.00 0.00 57 1023.8
20260505070925 74 225 5.2 10.4 0.00 0.00 0.00 56 1023.8
20260505070724 74 211 4.3 10.4 0.00 0.00 0.00 54 1023.8
20260505070523 74 221 5.2 9.6 0.00 0.00 0.00 53 1023.9
20260505070306 74 218 6.1 9.6 0.00 0.00 0.00 53 1023.8
20260505070104 75 220 4.3 9.6 0.00 0.00 0.00 53 1023.8
20260505065905 75 223 4.3 9.6 0.00 0.00 0.00 52 1023.8
20260505065706 75 203 5.2 9.6 0.00 0.00 0.00 51 1023.8
20260505065506 76 202 5.2 8.7 0.00 0.00 0.00 51 1023.9
20260505065305 76 217 2.6 10.4 0.00 0.00 0.00 52 1023.8
20260505065105 76 217 2.6 10.4 0.00 0.00 0.00 51 1023.7
20260505064905 77 213 3.5 10.4 0.00 0.00 0.00 50 1023.8
20260505064705 77 216 5.2 10.4 0.00 0.00 0.00 49 1023.9
20260505064505 78 217 5.2 10.4 0.00 0.00 0.00 48 1023.8
20260505064300 78 221 4.3 9.6 0.00 0.00 0.00 47 1023.8
20260505064101 78 241 1.7 7.8 0.00 0.00 0.00 46 1023.8
20260505063900 78 216 0.9 4.3 0.00 0.00 0.00 45 1023.8
20260505063659 78 216 0.9 4.3 0.00 0.00 0.00 44 1023.8
20260505063459 78 216 0.9 4.3 0.00 0.00 0.00 44 1023.8
20260505063258 78 216 2.6 4.3 0.00 0.00 0.00 43 1023.8
20260505063058 78 216 3.5 4.3 0.00 0.00 0.00 44 1023.8
20260505062857 78 216 0.9 3.5 0.00 0.00 0.00 45 1023.8
20260505062657 78 216 0.0 1.7 0.00 0.00 0.00 44 1023.8
20260505062457 78 216 0.9 1.7 0.00 0.00 0.00 44 1023.8
20260505062256 78 216 0.0 3.5 0.00 0.00 0.00 45 1023.9
20260505062056 78 216 0.0 4.3 0.00 0.00 0.00 44 1023.8
20260505061855 78 216 0.0 4.3 0.00 0.00 0.00 45 1023.8
20260505061655 78 216 0.0 4.3 0.00 0.00 0.00 45 1023.8
20260505061451 78 216 0.9 4.3 0.00 0.00 0.00 45 1023.8
20260505061252 78 217 0.9 4.3 0.00 0.00 0.00 45 1023.8
20260505061051 78 216 1.7 2.6 0.00 0.00 0.00 45 1023.7
20260505060850 78 216 0.9 2.6 0.00 0.00 0.00 45 1023.8
20260505060650 78 216 0.9 2.6 0.00 0.00 0.00 46 1023.9
20260505060450 77 217 0.9 3.5 0.00 0.00 0.00 46 1023.8
20260505060249 77 217 0.9 3.5 0.00 0.00 0.00 46 1023.9
20260505060049 77 218 0.9 3.5 0.00 0.00 0.00 46 1023.8
20260505055849 77 218 1.7 3.5 0.00 0.00 0.00 45 1023.8
20260505055647 77 218 1.7 3.5 0.00 0.00 0.00 45 1023.9
20260505055447 77 218 1.7 3.5 0.00 0.00 0.00 45 1023.9
20260505055247 77 218 0.0 4.3 0.00 0.00 0.00 46 1023.9
20260505055046 77 228 0.0 4.3 0.00 0.00 0.00 46 1023.9
20260505054846 77 228 0.0 4.3 0.00 0.00 0.00 46 1023.9
20260505054646 77 228 0.9 4.3 0.00 0.00 0.00 46 1024.0
20260505054445 77 228 2.6 4.3 0.00 0.00 0.00 44 1023.9
20260505054245 78 228 0.9 4.3 0.00 0.00 0.00 43 1023.9
20260505054045 78 228 2.6 4.3 0.00 0.00 0.00 43 1023.9
20260505053844 78 228 2.6 4.3 0.00 0.00 0.00 43 1023.9
20260505053640 78 187 1.7 3.5 0.00 0.00 0.00 43 1023.9
20260505053440 78 159 0.9 2.6 0.00 0.00 0.00 43 1024.0
20260505053241 78 148 0.9 2.6 0.00 0.00 0.00 45 1023.9
20260505053042 78 149 0.9 2.6 0.00 0.00 0.00 44 1024.0
20260505052842 78 149 0.9 2.6 0.00 0.00 0.00 44 1024.0
20260505052641 78 149 0.0 2.6 0.00 0.00 0.00 45 1024.0
20260505052441 78 152 0.9 2.6 0.00 0.00 0.00 46 1024.0
20260505052242 78 152 0.9 2.6 0.00 0.00 0.00 45 1024.0
20260505052041 78 152 0.9 2.6 0.00 0.00 0.00 44 1024.0
20260505051840 78 152 0.9 2.6 0.00 0.00 0.00 45 1024.1
20260505051641 78 152 0.9 3.5 0.00 0.00 0.00 46 1024.1
20260505051441 78 152 0.9 3.5 0.00 0.00 0.00 46 1024.1
20260505051240 78 148 0.0 3.5 0.00 0.00 0.00 46 1024.1
20260505051040 78 72 1.7 3.5 0.00 0.00 0.00 45 1024.2
20260505050837 78 73 1.7 3.5 0.00 0.00 0.00 47 1024.2
20260505050637 78 77 0.9 3.5 0.00 0.00 0.00 47 1024.2
20260505050436 77 84 0.9 2.6 0.00 0.00 0.00 47 1024.3
20260505050237 77 72 1.7 2.6 0.00 0.00 0.00 47 1024.3
20260505041617 75 39 1.7 3.5 0.00 0.00 0.00 50 1025.1
20260505041416 75 39 0.9 3.5 0.00 0.00 0.00 50 1025.1
20260505041216 75 39 0.9 3.5 0.00 0.00 0.00 51 1025.1
20260505041016 75 39 1.7 3.5 0.00 0.00 0.00 50 1025.2
20260505040815 75 39 1.7 3.5 0.00 0.00 0.00 50 1025.1
20260505040614 75 37 0.9 3.5 0.00 0.00 0.00 51 1025.2
20260505040415 75 37 1.7 3.5 0.00 0.00 0.00 50 1025.2
20260505040214 75 37 1.7 3.5 0.00 0.00 0.00 50 1025.2
20260505040015 75 37 1.7 3.5 0.00 0.00 0.00 50 1025.2
20260505035805 75 37 2.6 3.5 0.00 0.00 0.00 50 1025.2
20260505035605 75 34 1.7 4.3 0.00 0.00 0.00 50 1025.3
20260505035405 75 34 1.7 4.3 0.00 0.00 0.00 51 1025.3
20260505035205 75 34 1.7 4.3 0.00 0.00 0.00 50 1025.3
20260505035005 75 35 2.6 4.3 0.00 0.00 0.00 50 1025.3
20260505034806 75 35 2.6 4.3 0.00 0.00 0.00 51 1025.4
20260505034605 75 24 1.7 4.3 0.00 0.00 0.00 51 1025.3
20260505034405 75 15 1.7 2.6 0.00 0.00 0.00 52 1025.4
20260505034205 75 15 0.9 2.6 0.00 0.00 0.00 52 1025.4
20260505034005 75 15 0.9 2.6 0.00 0.00 0.00 53 1025.5
20260505033805 75 13 1.7 2.6 0.00 0.00 0.00 53 1025.5
20260505033605 74 13 1.7 2.6 0.00 0.00 0.00 53 1025.5
20260505033404 74 8 0.9 3.5 0.00 0.00 0.00 53 1025.5
20260505033205 74 8 0.9 4.3 0.00 0.00 0.00 53 1025.5
20260505033005 74 8 0.0 4.3 0.00 0.00 0.00 54 1025.5
20260505032755 74 8 0.9 4.3 0.00 0.00 0.00 53 1025.6
20260505032555 74 8 1.7 4.3 0.00 0.00 0.00 53 1025.6
20260505032355 73 8 2.6 4.3 0.00 0.00 0.00 53 1025.6
20260505032154 73 7 2.6 4.3 0.00 0.00 0.00 53 1025.6
20260505031953 73 61 1.7 3.5 0.00 0.00 0.00 54 1025.6
20260505031753 73 58 2.6 3.5 0.00 0.00 0.00 54 1025.7
20260505031553 73 61 1.7 3.5 0.00 0.00 0.00 54 1025.7
20260505031352 73 61 0.9 5.2 0.00 0.00 0.00 55 1025.7
20260505031151 73 62 1.7 5.2 0.00 0.00 0.00 55 1025.7
20260505030948 73 61 1.7 5.2 0.00 0.00 0.00 54 1025.7
20260505030748 73 63 1.7 5.2 0.00 0.00 0.00 55 1025.7
20260505030547 73 29 3.5 5.2 0.00 0.00 0.00 54 1025.7
20260505030346 73 68 3.5 5.2 0.00 0.00 0.00 54 1025.7
20260505030146 73 51 3.5 5.2 0.00 0.00 0.00 54 1025.7
20260505025946 73 52 1.7 5.2 0.00 0.00 0.00 54 1025.7
20260505025745 73 34 2.6 5.2 0.00 0.00 0.00 55 1025.8
20260505025545 73 32 2.6 5.2 0.00 0.00 0.00 55 1025.8
20260505025344 73 35 2.6 5.2 0.00 0.00 0.00 54 1025.8
20260505025144 73 55 1.7 4.3 0.00 0.00 0.00 54 1025.7
20260505024944 72 52 2.6 4.3 0.00 0.00 0.00 55 1025.8
20260505024744 72 46 1.7 3.5 0.00 0.00 0.00 56 1025.8
20260505024543 72 28 1.7 3.5 0.00 0.00 0.00 56 1025.8
20260505024342 72 27 1.7 3.5 0.00 0.00 0.00 57 1025.8
20260505024142 72 27 1.7 3.5 0.00 0.00 0.00 57 1025.8
20260505023941 72 27 1.7 4.3 0.00 0.00 0.00 57 1025.8
20260505023741 71 27 1.7 5.2 0.00 0.00 0.00 57 1025.8
20260505023541 71 28 0.9 5.2 0.00 0.00 0.00 58 1025.9
20260505023340 71 28 1.7 5.2 0.00 0.00 0.00 58 1025.9
20260505023137 71 31 1.7 5.2 0.00 0.00 0.00 58 1025.9
20260505022937 71 32 2.6 5.2 0.00 0.00 0.00 58 1026.0
20260505022736 70 330 1.7 4.3 0.00 0.00 0.00 59 1026.0
20260505022536 70 1 1.7 4.3 0.00 0.00 0.00 60 1025.9
20260505022336 70 1 2.6 4.3 0.00 0.00 0.00 60 1026.0
20260505022136 70 68 0.9 4.3 0.00 0.00 0.00 60 1026.0
20260505021936 69 68 1.7 4.3 0.00 0.00 0.00 60 1025.9
20260505021737 69 69 2.6 4.3 0.00 0.00 0.00 61 1026.0
20260505021534 69 25 1.7 4.3 0.00 0.00 0.00 61 1025.9
20260505021334 69 62 2.6 4.3 0.00 0.00 0.00 61 1026.0
20260505021134 69 61 2.6 4.3 0.00 0.00 0.00 61 1026.0
20260505020934 69 65 2.6 4.3 0.00 0.00 0.00 61 1026.0
20260505020734 68 27 2.6 5.2 0.00 0.00 0.00 61 1026.0
20260505020535 68 25 1.7 5.2 0.00 0.00 0.00 62 1026.0
20260505020334 68 24 2.6 5.2 0.00 0.00 0.00 62 1026.1
20260505020133 68 21 2.6 5.2 0.00 0.00 0.00 63 1026.0
20260505015933 68 14 2.6 5.2 0.00 0.00 0.00 64 1026.0
20260505015734 68 77 1.7 4.3 0.00 0.00 0.00 64 1026.0
20260505015534 67 7 1.7 4.3 0.00 0.00 0.00 65 1026.1
20260505015333 67 6 1.7 6.1 0.00 0.00 0.00 65 1026.0
20260505015133 67 6 2.6 6.1 0.00 0.00 0.00 65 1026.1
20260505014934 67 59 1.7 6.1 0.00 0.00 0.00 65 1026.0
20260505014735 66 59 3.5 6.1 0.00 0.00 0.00 66 1026.1
20260505014535 66 45 1.7 6.1 0.00 0.00 0.00 67 1026.0
20260505014335 66 46 1.7 5.2 0.00 0.00 0.00 67 1026.1
20260505014135 66 51 2.6 5.2 0.00 0.00 0.00 67 1026.1